User: anonymous   Login
Location: Keeble Observatory
(37.7625°N, 77.4755°W)
Time: 20:36:31
(UTC-04:00)
Language:

Cosmos 1484 Rocket - Orbit

View from above orbital plane
View from above orbital plane
View from above satellite
View from above satellite

Ground track
Ground track

The orbit data is extracted from the following two-line orbital elements,

1 14208U 83075B   15208.68054398  .00001001  00000-0  65972-4 0  9992
2 14208 097.3824 235.6975 0040389 353.4301 006.6394 15.09098098743315
Epoch (UTC): 27 July 2015 16:19:59
Eccentricity: 0.0040389
inclination: 97.3824°
perigee height: 511 km
apogee height: 567 km
right ascension of ascending node: 235.6975°
argument of perigee: 353.4301°
revolutions per day: 15.09098098
mean anomaly at epoch: 6.6394°
orbit number at epoch: 74331

The dashed part of the orbit path shows where the satellite is in the earth's shadow,  

DLR